Regional Weather Roundup
Issued by NWS

Home | Current Version | Previous Version | Text Only | Print | Product List | Glossary On
Versions: 1 2 3 4 5 6 7 8 9 10 11 12 13 14 15 16 17 18 19 20 21 22 23 24 25 26 27 28 29 30 31 32 33 34 35 36 37 38 39 40 41 42 43 44 45 46 47 48 49 50
000
ASUS44 KEWX 311811
RWRTX
SOUTH TEXAS REGIONAL WEATHER ROUNDUP
NATIONAL WEATHER SERVICE AUSTIN/SAN ANTONIO TX
100 PM CDT TUE MAR 31 2015

NOTE: "FAIR" INDICATED FEW OR NO CLOUDS BELOW 12,000 FEET WITH NO
SIGNIFICANT WEATHER AND/OR OBSTRUCTIONS TO VISIBILITY.

* - THESE STATIONS ARE NOT NWS OR FAA STATIONS...AND ARE NOT SUBJECT
    TO NWS AND FAA QUALITY CONTROL.

TXZ171-172-183>190-311900-
TEXAS HILL COUNTRY AND EDWARDS PLATEAU

CITY           SKY/WX    TMP DP  RH WIND       PRES   REMARKS
JUNCTION       CLOUDY    77  59  53 S13       30.02F
6HR MIN TEMP:  66; 6HR MAX TEMP:  77;

*LLANO         SUNNY     79  61  53 S8        30.06F
BURNET           N/A    N/A N/A N/A MISG      30.06F
*HORSESHOE BAY SUNNY     77  60  56 S8        30.05F
6HR MIN TEMP:  67; 6HR MAX TEMP:  77;

*KERRVILLE     CLOUDY    72  62  72 S9        30.07F
6HR MIN TEMP:  63; 6HR MAX TEMP:  72;

*FREDERICKSBRG SUNNY     71  59  65 S12       30.06F
6HR MIN TEMP:  63; 6HR MAX TEMP:  71;

*ROCKSPRINGS   NOT AVBL
*BOERNE STAGE  CLOUDY    73  59  60 S10       30.07F
*CASTROVILLE   CLOUDY    75  62  63 S10       30.06F
HONDO          CLOUDY    74  63  68 MISG      30.06F
6HR MIN TEMP:  65; 6HR MAX TEMP:  75;

*UVALDE        CLOUDY    71  64  76 S9        30.05F
6HR MIN TEMP:  65; 6HR MAX TEMP:  71;

DEL RIO        CLOUDY    73  64  73 SE13      30.01F HAZE
6HR MIN TEMP:  66; 6HR MAX TEMP:  73;

LAUGHLIN AFB   CLOUDY    71  64  80 SE13      30.02F
6HR MIN TEMP:  65; 6HR MAX TEMP:  71;

CARRIZO SPRGS  CLOUDY    72  63  73 S10       30.03S
$$

TXZ173-191>194-202-209-217>225-228-311900-
CENTRAL AND SOUTH CENTRAL TEXAS

CITY           SKY/WX    TMP DP  RH WIND       PRES   REMARKS
GEORGETOWN     MOSUNNY   77  59  53 S13G18    30.04F
AUSTIN/BERGSTM PTSUNNY   76  62  62 S15       30.05F
6HR MIN TEMP:  66; 6HR MAX TEMP:  76;

AUSTIN/MABRY   PTSUNNY   79  62  56 S6        30.06F
6HR MIN TEMP:  66; 6HR MAX TEMP:  79;

*AUSTIN/EXEC     N/A     75  61  60 S13G18    30.05F
*LAGO VISTA    PTSUNNY   76  59  56 SW9       30.06F
6HR MIN TEMP:  66; 6HR MAX TEMP:  76;

SAN MARCOS     PTSUNNY   73  61  64 S13       30.07F
NEW BRAUNFELS  CLOUDY    77  62  59 S15       30.05F
6HR MIN TEMP:  67; 6HR MAX TEMP:  77;

RANDOLPH AFB   CLOUDY    75  62  65 S12       30.05F
6HR MIN TEMP:  66; 6HR MAX TEMP:  75;

PT SAN ANTONIO CLOUDY    74  65  72 SE9       30.04F
6HR MIN TEMP:  65; 6HR MAX TEMP:  74;

SAN ANTONIO    CLOUDY    75  63  66 SW9G18    30.06F
6HR MIN TEMP:  67; 6HR MAX TEMP:  76; 6HR PCP: TRACE;

STINSON FIELD  CLOUDY    75  64  68 S10       30.04F
6HR MIN TEMP:  66; 6HR MAX TEMP:  75;

*PLEASANTON    CLOUDY    76  63  64 S12       30.06F
6HR MIN TEMP:  66; 6HR MAX TEMP:  76;

*LA GRANGE     MOSUNNY   78  64  63 S9G18     30.05F
6HR MIN TEMP:  66; 6HR MAX TEMP:  78;

*GIDDINGS      MOSUNNY   74  60  61 SW7       30.11F
6HR MIN TEMP:  65; 6HR MAX TEMP:  75;

*GONZALES      CLOUDY    77  65  66 S14       30.06F
6HR MIN TEMP:  67; 6HR MAX TEMP:  78;

$$

TXZ163>164-176>182-195>201-210>213-226-227-235-311900-
SOUTHEAST TEXAS

CITY           SKY/WX    TMP DP  RH WIND       PRES   REMARKS
COLLEGE STN    MOSUNNY   76  59  55 SW15      30.07F
6HR MIN TEMP:  65; 6HR MAX TEMP:  76;

*BRYAN         PTSUNNY   76  61  59 S14       30.08F
6HR MIN TEMP:  64; 6HR MAX TEMP:  76;

*CALDWELL      MOSUNNY   73  63  68 SW12      30.10F
*CROCKETT      MOSUNNY   79  64  61 SW14      30.09F
*BRENHAM       MOSUNNY   76  62  60 SW7       30.09F
6HR MIN TEMP:  64; 6HR MAX TEMP:  77;

HUNTSVILLE     MOSUNNY   78  59  51 SW9G20    30.07F
6HR MIN TEMP:  63; 6HR MAX TEMP:  78;

CONROE         MOSUNNY   77  57  50 W9        30.08F
6HR MIN TEMP:  64; 6HR MAX TEMP:  78;

HOUSTON BUSH   PTSUNNY   77  61  57 SW8       30.08F
6HR MIN TEMP:  64; 6HR MAX TEMP:  79;

HOUSTON HOBBY  MOSUNNY   80  62  54 S12       30.08F
6HR MIN TEMP:  61; 6HR MAX TEMP:  80;

*HOUSTON SW AP PTSUNNY   78  63  61 SW9       30.09F
6HR MIN TEMP:  59; 6HR MAX TEMP:  78;

PEARLAND       MOSUNNY   80  60  50 SW9       30.09F
6HR MIN TEMP:  60; 6HR MAX TEMP:  81;

HOUSTON HOOKS  MOSUNNY   79  60  52 S10G18    30.08F
6HR MIN TEMP:  65; 6HR MAX TEMP:  79;

ELLINGTON FLD  PTSUNNY   82  59  44 S10       30.10F
SUGAR LAND     MOSUNNY   80  62  54 SW12      30.08F
6HR MIN TEMP:  63; 6HR MAX TEMP:  80;

*HOUSTON EXEC  MOSUNNY   77  63  61 SW14      30.09F
*CLEVELAND MUN MOSUNNY   80  62  55 SW10      30.09F
6HR MIN TEMP:  58; 6HR MAX TEMP:  80;

*WHARTON       PTSUNNY   77  63  63 S13G18    30.08F
6HR MIN TEMP:  62; 6HR MAX TEMP:  78;

*COLUMBUS      CLOUDY    76  63  64 SW7       30.07F
6HR MIN TEMP:  64; 6HR MAX TEMP:  77;

$$

TXZ214>216-236>238-311900-
THE UPPER TEXAS COAST

CITY           SKY/WX    TMP DP  RH WIND       PRES   REMARKS
*ORANGE        CLOUDY    77  61  57 S13       30.12F
6HR MIN TEMP:  63; 6HR MAX TEMP:  78;

PORT ARTHUR    PTSUNNY   81  60  48 S13       30.10F
6HR MIN TEMP:  63; 6HR MAX TEMP:  82;

GALVESTON      MOSUNNY   75  68  78 S13       30.11F
6HR MIN TEMP:  66; 6HR MAX TEMP:  76;

ANGLETON       PTSUNNY   75  65  70 S10       30.08F HAZE
6HR MIN TEMP:  61; 6HR MAX TEMP:  78;

*BAY CITY      PTSUNNY   78  66  66 SW10G17   30.09F
PALACIOS       PTSUNNY   77  69  76 S14       30.08F
6HR MIN TEMP:  69; 6HR MAX TEMP:  77;

$$

TXZ229>234-239>247-311900-
TEXAS COASTAL BEND AND RIO GRANDE PLAINS

CITY           SKY/WX    TMP DP  RH WIND       PRES   REMARKS
VICTORIA       PTSUNNY   79  65  62 SW13      30.06F
6HR MIN TEMP:  65; 6HR MAX TEMP:  81;

*BEEVILLE      PTSUNNY   77  66  68 S13G20    30.06F
6HR MIN TEMP:  66; 6HR MAX TEMP:  78;

ROCKPORT       CLOUDY    77  68  73 S13G21    30.06F
6HR MIN TEMP:  69; 6HR MAX TEMP:  78;

*PORT ARANSAS  CLOUDY    73  69  86 SE8       30.07F
6HR MIN TEMP:  66; 6HR MAX TEMP:  74;

*PORT LAVACA   PTSUNNY   78  68  69 S17       30.07F
6HR MIN TEMP:  62; 6HR MAX TEMP:  79;

*INGLESIDE     CLOUDY    78  70  76 S15G21    30.06F
CORPUS CHRISTI PTSUNNY   77  68  73 S10       30.05F
6HR MIN TEMP:  65; 6HR MAX TEMP:  78;

CORPUS NAS     PTSUNNY   77  70  79 S16       30.06F
6HR MIN TEMP:  68; 6HR MAX TEMP:  77;

*ROBSTOWN      PTSUNNY   79  67  66 MISG      30.05F
6HR MIN TEMP:  68; 6HR MAX TEMP:  80;

ALICE          CLOUDY    80  66  62 S12G18    30.04F
6HR MIN TEMP:  67; 6HR MAX TEMP:  80;

KINGSVILLE NAS CLOUDY    80  69  69 S10       30.04F
6HR MIN TEMP:  68; 6HR MAX TEMP:  80;

COTULLA        CLOUDY    74  64  71 S8        30.03F
6HR MIN TEMP:  68; 6HR MAX TEMP:  74;

*FAITH RANCH   CLOUDY    70  64  83 S7        30.05R
LAREDO         CLOUDY    74  65  73 SE13      30.05F
6HR MIN TEMP:  69; 6HR MAX TEMP:  74;

$$

TXZ248>255-311900-
DEEP SOUTH TEXAS

CITY           SKY/WX    TMP DP  RH WIND       PRES   REMARKS
BROWNSVILLE    CLOUDY    78  69  73 S20G26    30.05F
6HR MIN TEMP:  71; 6HR MAX TEMP:  79;

PORT ISABEL    CLOUDY    79  69  71 S18G30    30.03F HAZE
6HR MIN TEMP:  69; 6HR MAX TEMP:  80;

*SOUTH PADRE   CLOUDY    75  70  83 S10       30.05F
HARLINGEN      CLOUDY    81  68  64 S20       30.02F
6HR MIN TEMP:  69; 6HR MAX TEMP:  82;



USA.gov is the U.S. government's official web portal to all federal, state and local government web resources and services.